Location: Kawakawa
(35.3830°S, 174.0670°E)
Time: 09:24:26
(UTC+13:00)

Altair - Pass Details

Date: 20 December 2019
Orbit: 1502 x 1682 km, 47.2° (Epoch: 20 January)

Event Time Altitude Azimuth Distance (km) Brightness Sun altitude
Rises 05:00:01 0° 359° (N) 4,640 9.6 -11.6°
Reaches altitude 10° 05:04:14 10° 16° (NNE) 3,687 9.3 -10.9°
Maximum altitude 05:10:07 19° 56° (ENE) 3,096 9.3 -10.0°
Drops below altitude 10° 05:16:08 10° 96° (E) 3,789 10.6 -9.0°
Sets 05:20:29 0° 112° (ESE) 4,814 12.0 -8.3°
